Location: Bessat
(45.8735°N, 1.9924°E)
Time: 17:59:56
(UTC+00:00)

Cosmos 1340 Rocket - Pass Details

Date: 11 May 2021
Orbit: 527 x 559 km, 81.2° (Epoch: 21 June)

Event Time Altitude Azimuth Distance (km) Brightness Sun altitude
Rises 22:25:50 0° 345° (NNW) 2,758 7.8 -23.3°
Reaches altitude 10° 22:28:03 10° 342° (NNW) 1,857 6.6 -23.5°
Enters shadow 22:32:02 59° 267° (W) 649 3.1 -23.7°
